When you browse on this site, cookies collect data to enhance your experience and personalize the content and advertising you see.
Visit our Privacy Policy to learn more. By continuing to use the site, you agree to this use of cookies and data.
EN

Hourly Weather Baranagar

Today, 7 July, Tuesday

Time Temperature Precipitation Wind Pressure Humidity
00:00 +31°C° 0 mm 3 mps 749 mmHg 82%
01:00 +31°C° 0.1 mm 2 mps 749 mmHg 83%
02:00 +31°C° 0.1 mm 2 mps 748 mmHg 83%
03:00 +30°C° 0.1 mm 2 mps 748 mmHg 84%
04:00 +30°C° 0.1 mm 2 mps 749 mmHg 84%
05:00 +30°C° 0.1 mm 3 mps 749 mmHg 84%
06:00 +30°C° 0 mm 2 mps 750 mmHg 85%
07:00 +33°C° 0.8 mm 3 mps 750 mmHg 79%
08:00 +34°C° 0.8 mm 4 mps 750 mmHg 72%
09:00 +35°C° 0.8 mm 5 mps 750 mmHg 66%
10:00 +36°C° 0.1 mm 5 mps 751 mmHg 62%
11:00 +37°C° 0.1 mm 5 mps 751 mmHg 59%
12:00 +38°C° 0 mm 4 mps 751 mmHg 54%
13:00 +37°C° 0 mm 4 mps 751 mmHg 54%
14:00 +37°C° 0 mm 5 mps 750 mmHg 55%
15:00 +37°C° 0 mm 5 mps 749 mmHg 55%
16:00 +37°C° 0 mm 5 mps 749 mmHg 57%
17:00 +36°C° 0 mm 5 mps 749 mmHg 59%
18:00 +35°C° 0 mm 4 mps 750 mmHg 61%
19:00 +34°C° 0 mm 4 mps 751 mmHg 65%
20:00 +34°C° 0 mm 4 mps 751 mmHg 68%
21:00 +33°C° 0 mm 4 mps 752 mmHg 71%
22:00 +33°C° 0 mm 4 mps 752 mmHg 73%
23:00 +33°C° 0 mm 3 mps 752 mmHg 74%

Tomorrow, 8 July, Wednesday

Time Temperature Precipitation Wind Pressure Humidity
00:00 +31°C° 0 mm 3 mps 752 mmHg 76%
01:00 +31°C° 0.1 mm 3 mps 752 mmHg 76%
02:00 +31°C° 0.1 mm 3 mps 751 mmHg 77%
03:00 +31°C° 0.1 mm 3 mps 751 mmHg 77%
04:00 +31°C° 0 mm 3 mps 751 mmHg 77%
05:00 +31°C° 0 mm 3 mps 751 mmHg 78%
06:00 +31°C° 0 mm 2 mps 751 mmHg 78%
07:00 +33°C° 0 mm 3 mps 751 mmHg 74%
08:00 +34°C° 0 mm 3 mps 752 mmHg 70%
09:00 +35°C° 0 mm 3 mps 752 mmHg 66%
10:00 +36°C° 0 mm 3 mps 752 mmHg 61%
11:00 +37°C° 0 mm 3 mps 751 mmHg 56%
12:00 +38°C° 0 mm 3 mps 751 mmHg 51%
13:00 +38°C° 0 mm 4 mps 750 mmHg 50%
14:00 +40°C° 0 mm 4 mps 750 mmHg 49%
15:00 +40°C° 0 mm 5 mps 749 mmHg 49%
16:00 +39°C° 0 mm 5 mps 749 mmHg 51%
17:00 +37°C° 0 mm 5 mps 749 mmHg 54%
18:00 +36°C° 0 mm 5 mps 749 mmHg 56%
19:00 +35°C° 0 mm 5 mps 749 mmHg 61%
20:00 +34°C° 0 mm 6 mps 750 mmHg 65%
21:00 +34°C° 0 mm 6 mps 751 mmHg 70%
22:00 +33°C° 0 mm 5 mps 750 mmHg 70%
23:00 +33°C° 0 mm 5 mps 750 mmHg 71%

Day after tomorrow, 9 July, Thursday

Time Temperature Precipitation Wind Pressure Humidity
00:00 +33°C° 0 mm 5 mps 750 mmHg 71%
01:00 +33°C° 0 mm 5 mps 750 mmHg 72%
02:00 +33°C° 0 mm 5 mps 750 mmHg 73%
03:00 +33°C° 0 mm 5 mps 749 mmHg 73%
04:00 +32°C° 0 mm 5 mps 749 mmHg 74%
05:00 +32°C° 0 mm 4 mps 749 mmHg 75%
06:00 +32°C° 0 mm 4 mps 749 mmHg 75%
07:00 +33°C° 0.1 mm 4 mps 749 mmHg 70%
08:00 +35°C° 0.1 mm 5 mps 750 mmHg 66%
09:00 +36°C° 0.1 mm 5 mps 750 mmHg 61%
10:00 +37°C° 0.1 mm 5 mps 749 mmHg 56%
11:00 +39°C° 0.1 mm 5 mps 749 mmHg 52%
12:00 +41°C° 0.1 mm 5 mps 749 mmHg 47%
13:00 +40°C° 0 mm 6 mps 748 mmHg 48%
14:00 +40°C° 0 mm 6 mps 747 mmHg 49%
15:00 +40°C° 0 mm 6 mps 747 mmHg 50%
16:00 +39°C° 0 mm 6 mps 747 mmHg 53%
17:00 +38°C° 0 mm 7 mps 747 mmHg 56%
18:00 +38°C° 0 mm 7 mps 746 mmHg 59%
19:00 +36°C° 0.5 mm 7 mps 747 mmHg 63%
20:00 +35°C° 0.5 mm 6 mps 748 mmHg 66%
21:00 +34°C° 0.5 mm 6 mps 748 mmHg 70%
22:00 +34°C° 0.2 mm 6 mps 748 mmHg 72%
23:00 +33°C° 0.2 mm 6 mps 748 mmHg 73%

10 July, Friday

Time Temperature Precipitation Wind Pressure Humidity
00:00 +33°C° 0.2 mm 6 mps 748 mmHg 75%
01:00 +33°C° 0.3 mm 6 mps 748 mmHg 75%
02:00 +33°C° 0.3 mm 6 mps 747 mmHg 74%
03:00 +32°C° 0.3 mm 6 mps 747 mmHg 74%
04:00 +32°C° 0.6 mm 6 mps 747 mmHg 75%
05:00 +32°C° 0.6 mm 6 mps 747 mmHg 76%
06:00 +32°C° 0.6 mm 6 mps 748 mmHg 77%
07:00 +33°C° 0.8 mm 6 mps 748 mmHg 73%
08:00 +34°C° 0.8 mm 7 mps 748 mmHg 69%
09:00 +35°C° 0.8 mm 8 mps 749 mmHg 65%
10:00 +35°C° 1 mm 7 mps 749 mmHg 64%
11:00 +36°C° 1 mm 7 mps 749 mmHg 62%
12:00 +36°C° 1 mm 7 mps 749 mmHg 61%
13:00 +38°C° 0.7 mm 7 mps 748 mmHg 59%
14:00 +38°C° 0.7 mm 8 mps 748 mmHg 58%
15:00 +39°C° 0.7 mm 8 mps 747 mmHg 56%
16:00 +38°C° 0.2 mm 8 mps 747 mmHg 60%
17:00 +37°C° 0.2 mm 8 mps 747 mmHg 63%
18:00 +35°C° 0.2 mm 8 mps 747 mmHg 67%
19:00 +34°C° 0 mm 8 mps 747 mmHg 69%
20:00 +34°C° 0 mm 8 mps 748 mmHg 71%
21:00 +33°C° 0 mm 8 mps 748 mmHg 73%
22:00 +33°C° 0.3 mm 8 mps 748 mmHg 74%
23:00 +33°C° 0.3 mm 7 mps 748 mmHg 74%

11 July, Saturday

Time Temperature Precipitation Wind Pressure Humidity
00:00 +33°C° 0.3 mm 7 mps 748 mmHg 75%
01:00 +32°C° 0.4 mm 7 mps 748 mmHg 75%
02:00 +32°C° 0.4 mm 7 mps 748 mmHg 75%
03:00 +32°C° 0.4 mm 6 mps 747 mmHg 75%
04:00 +32°C° 0.1 mm 6 mps 747 mmHg 76%
05:00 +32°C° 0.1 mm 6 mps 747 mmHg 77%
06:00 +32°C° 0.1 mm 6 mps 747 mmHg 77%
07:00 +33°C° 0.5 mm 6 mps 748 mmHg 74%
08:00 +34°C° 0.5 mm 6 mps 748 mmHg 70%
09:00 +34°C° 0.5 mm 6 mps 749 mmHg 66%
10:00 +35°C° 0.2 mm 6 mps 749 mmHg 62%
11:00 +36°C° 0.2 mm 6 mps 749 mmHg 59%
12:00 +38°C° 0.2 mm 6 mps 749 mmHg 55%
13:00 +37°C° 0.3 mm 5 mps 748 mmHg 55%
14:00 +37°C° 0.3 mm 5 mps 748 mmHg 56%
15:00 +37°C° 0.3 mm 5 mps 747 mmHg 56%
16:00 +36°C° 0.9 mm 5 mps 747 mmHg 60%
17:00 +35°C° 0.9 mm 6 mps 748 mmHg 64%
18:00 +34°C° 0.9 mm 6 mps 748 mmHg 68%
19:00 +33°C° 3.3 mm 5 mps 748 mmHg 73%
20:00 +31°C° 3.3 mm 3 mps 749 mmHg 78%
21:00 +30°C° 3.3 mm 2 mps 750 mmHg 84%
22:00 +30°C° 0.3 mm 2 mps 749 mmHg 82%
23:00 +30°C° 0.3 mm 2 mps 749 mmHg 81%

12 July, Sunday

Time Temperature Precipitation Wind Pressure Humidity
00:00 +30°C° 0.3 mm 2 mps 749 mmHg 79%
01:00 +30°C° 0.6 mm 3 mps 749 mmHg 79%
02:00 +30°C° 0.6 mm 4 mps 749 mmHg 79%
03:00 +32°C° 0.6 mm 4 mps 748 mmHg 79%
04:00 +30°C° 1.4 mm 4 mps 748 mmHg 79%
05:00 +30°C° 1.4 mm 4 mps 749 mmHg 80%
06:00 +30°C° 1.4 mm 4 mps 749 mmHg 80%
07:00 +32°C° 1.3 mm 4 mps 749 mmHg 78%
08:00 +32°C° 1.3 mm 4 mps 750 mmHg 76%
09:00 +33°C° 1.3 mm 5 mps 750 mmHg 74%
10:00 +33°C° 0.2 mm 5 mps 750 mmHg 73%
11:00 +33°C° 0.2 mm 5 mps 750 mmHg 73%
12:00 +33°C° 0.2 mm 6 mps 750 mmHg 73%
13:00 +33°C° 0 mm 6 mps 750 mmHg 72%
14:00 +33°C° 0 mm 6 mps 749 mmHg 72%
15:00 +33°C° 0 mm 6 mps 749 mmHg 72%
16:00 +33°C° 0 mm 6 mps 749 mmHg 72%
17:00 +33°C° 0 mm 6 mps 749 mmHg 72%
18:00 +33°C° 0 mm 6 mps 749 mmHg 72%
19:00 +33°C° 0.9 mm 5 mps 749 mmHg 75%
20:00 +32°C° 0.9 mm 4 mps 750 mmHg 78%
21:00 +30°C° 0.9 mm 4 mps 750 mmHg 81%
22:00 +30°C° 0.1 mm 3 mps 750 mmHg 82%
23:00 +30°C° 0.1 mm 3 mps 750 mmHg 82%
Show more